Weather History for Adelaide, SA

Change the Weather History Date:

Monday, May 6, 2013

  Actual Average Record
Temperature  
Mean Temperature 63 °F -  
Max Temperature 71 °F 64 °F 82 °F (2002)
Min Temperature 55 °F 48 °F 44 °F (1998)
Degree Days  
Heating Degree Days 2    
Growing Degree Days 13 (Base 50)    
Moisture  
Dew Point 42 °F    
Average Humidity 46    
Maximum Humidity 63    
Minimum Humidity 26    
Precipitation  
Precipitation 0.02 in 0.07 in - ()
Sea Level Pressure  
Sea Level Pressure 30.11 in    
Wind  
Wind Speed 9 mph ()    
Max Wind Speed 20 mph    
Max Gust Speed -    
Visibility 15.5 miles    
Events Rain    
Averages and records for this station are not official NWS values.
T = Trace of Precipitation, MM = Missing Value Source: Averaged Metar Reports

Daily Weather History Graph

Daily Weather History Graph

Search for Another Location

Airport:

Trip Planner

Search our weather history database for the weather conditions in past years. The results will help you decide how hot, cold, wet, or windy it might be!

Date:

Astronomy

May. 06, 2013 Rise Set
Actual Time 6:56 AM CST 5:28 PM CST
Civil Twilight 6:29 AM CST 5:55 PM CST
Nautical Twilight 5:59 AM CST 6:25 PM CST
Astronomical Twilight 5:29 AM CST 6:55 PM CST
Moon 3:06 AM CST (5/6) 3:08 PM CST (5/6)
Length of Visible Light 11h 25m
Length of Day
10h 32m
Waning Crescent, 15% of the Moon is Illuminated
May 6
Waning Crescent
May 10
New
May 18
First Quarter
May 25
Full
Jun 1
Last Quarter

Hourly Weather History & Observations

Time (CST) Temp. Dew Point Humidity Pressure Visibility Wind Dir Wind Speed Gust Speed Precip Events Conditions
12:00 AM 59 °F 41 °F 41% 30.15 in 19 mi NNE 12.7 mph - -   Partly Cloudy
12:00 AM 59.0 °F 41.0 °F 51% 30.12 in - NNE 12.7 mph - N/A   Clear
12:30 AM 58 °F 42 °F 44% 30.16 in - NE 4.6 mph - -  
12:30 AM 59.0 °F 42.8 °F 55% 30.15 in - NE 4.6 mph - N/A   Clear
1:00 AM 59.0 °F 39.2 °F 48% 30.15 in - NE 9.2 mph - N/A   Clear
1:30 AM 57.2 °F 42.8 °F 59% 30.12 in - ENE 5.8 mph - N/A   Clear
2:00 AM 57.2 °F 42.8 °F 59% 30.12 in - East 5.8 mph - N/A   Clear
2:30 AM 59.0 °F 37.4 °F 45% 30.12 in - NNE 8.1 mph - N/A   Clear
3:00 AM 59 °F 36 °F 31% 30.11 in 19 mi NNE 15.0 mph - -   Partly Cloudy
3:00 AM 59.0 °F 35.6 °F 42% 30.09 in - NNE 15.0 mph - N/A   Clear
3:30 AM 59 °F 36 °F 29% 30.11 in - NNE 18.4 mph - -  
3:30 AM 59.0 °F 35.6 °F 42% 30.09 in - NNE 18.4 mph - N/A   Clear
4:00 AM 59.0 °F 37.4 °F 45% 30.09 in - NNE 16.1 mph - N/A   Clear
4:30 AM 59.0 °F 39.2 °F 48% 30.12 in - NNE 8.1 mph - N/A   Clear
5:00 AM 57.2 °F 39.2 °F 51% 30.12 in - East 6.9 mph - N/A   Clear
5:30 AM 57.2 °F 39.2 °F 51% 30.12 in - SSE 3.5 mph - N/A   Clear
6:00 AM 56 °F 42 °F 48% 30.15 in 19 mi South 3.5 mph - -   Partly Cloudy
6:00 AM 55.4 °F 42.8 °F 63% 30.12 in - South 3.5 mph - N/A   Clear
6:30 AM 56 °F 43 °F 50% 30.15 in - ENE 5.8 mph - -  
6:30 AM 55.4 °F 42.8 °F 63% 30.15 in - ENE 5.8 mph - N/A   Clear
7:00 AM 55.4 °F 42.8 °F 63% 30.15 in - NE 5.8 mph - N/A   Clear
7:30 AM 57.2 °F 42.8 °F 59% 30.15 in - North 6.9 mph - N/A   Clear
8:00 AM 59.0 °F 42.8 °F 55% 30.15 in - NW 4.6 mph - N/A   Clear
8:30 AM 60.8 °F 39.2 °F 45% 30.18 in - NNW 5.8 mph - N/A   Clear
9:00 AM 61 °F 38 °F 31% 30.19 in 19 mi NNW 4.6 mph - -   Overcast
9:00 AM 60.8 °F 39.2 °F 45% 30.18 in - NNW 4.6 mph - N/A   Clear
9:30 AM 62 °F 39 °F 30% 30.20 in - North 4.6 mph - -  
9:30 AM 62.6 °F 39.2 °F 42% 30.18 in - North 4.6 mph - N/A   Clear
10:00 AM 59.0 °F 46.4 °F 63% 30.18 in 6.2 mi East 11.5 mph - N/A Rain Light Rain
10:30 AM 60.8 °F 46.4 °F 59% 30.15 in 6.2 mi East 5.8 mph - N/A Rain Light Rain
11:00 AM 62.6 °F 48.2 °F 59% 30.15 in - NE 9.2 mph - N/A   Clear
11:30 AM 62.6 °F 48.2 °F 59% 30.12 in 6.2 mi NE 10.4 mph - N/A Rain Light Rain
12:00 PM 64 °F 45 °F 39% 30.13 in 19 mi NE 19.6 mph - -   Overcast
12:00 PM 64.4 °F 44.6 °F 49% 30.12 in - NE 19.6 mph - N/A   Clear
12:30 PM 66.2 °F 42.8 °F 43% 30.09 in - NE 12.7 mph - N/A   Clear
1:00 PM 69.8 °F 42.8 °F 38% 30.06 in - NE 17.3 mph - N/A   Clear
1:30 PM 69.8 °F 42.8 °F 38% 30.06 in - NE 17.3 mph - N/A   Clear
2:00 PM 69.8 °F 41.0 °F 35% 30.06 in - NE 17.3 mph - N/A   Clear
2:30 PM 71.6 °F 41.0 °F 33% 30.04 in - NE 16.1 mph - N/A   Clear
3:00 PM 70 °F 43 °F 26% 30.05 in 19 mi NNE 15.0 mph - -   Partly Cloudy
3:00 PM 69.8 °F 42.8 °F 38% 30.04 in - NNE 15.0 mph - N/A   Clear
3:30 PM 71 °F 43 °F 26% 30.06 in - NE 13.8 mph - -  
3:30 PM 69.8 °F 42.8 °F 38% 30.04 in - NE 13.8 mph - N/A   Clear
4:00 PM 68.0 °F 44.6 °F 43% 30.06 in - NE 9.2 mph - N/A   Clear
4:30 PM 68.0 °F 42.8 °F 40% 30.06 in - ENE 9.2 mph - N/A   Clear
5:00 PM 68.0 °F 42.8 °F 40% 30.06 in - NE 9.2 mph - N/A   Clear
5:30 PM 64.4 °F 42.8 °F 45% 30.06 in - NE 10.4 mph - N/A   Clear
6:00 PM 64 °F 42 °F 33% 30.08 in 19 mi NE 10.4 mph - -   Partly Cloudy
6:00 PM 64.4 °F 42.8 °F 45% 30.06 in - NE 10.4 mph - N/A   Clear
6:30 PM 64 °F 42 °F 33% 30.08 in - NE 11.5 mph - -  
6:30 PM 64.4 °F 42.8 °F 45% 30.06 in - NE 11.5 mph - N/A   Clear
7:00 PM 64.4 °F 41.0 °F 42% 30.06 in - NNE 12.7 mph - N/A   Clear
7:30 PM 62.6 °F 41.0 °F 45% 30.06 in - NNE 13.8 mph - N/A   Clear
8:00 PM 62.6 °F 41.0 °F 45% 30.09 in - NNE 13.8 mph - N/A   Clear
8:30 PM 62.6 °F 41.0 °F 45% 30.09 in - NNE 11.5 mph - N/A   Clear
9:00 PM 60 °F 42 °F 39% 30.11 in 19 mi NNE 10.4 mph - -   Partly Cloudy
9:00 PM 60.8 °F 41.0 °F 48% 30.09 in - NNE 10.4 mph - N/A   Clear
9:30 PM 58 °F 42 °F 44% 30.11 in - NE 9.2 mph - -  
9:30 PM 59.0 °F 42.8 °F 55% 30.09 in - NE 9.2 mph - N/A   Clear
10:00 PM 59.0 °F 41.0 °F 51% 30.09 in - NE 8.1 mph - N/A   Clear
10:30 PM 57.2 °F 42.8 °F 59% 30.09 in - NE 8.1 mph - N/A   Clear
11:00 PM 57.2 °F 41.0 °F 55% 30.09 in - NE 8.1 mph - N/A   Clear
11:30 PM 57.2 °F 41.0 °F 55% 30.06 in - NE 9.2 mph - N/A   Clear